Location: S�deilles
(46.7500°N, 6.9329°E)
Time: 07:36:59
(UTC+00:00)

CSL-04 Debris - Pass Details

Date: 08 March 2021
Orbit: 826 x 848 km, 98.9° (Epoch: 14 April)

Event Time Altitude Azimuth Distance (km) Brightness Sun altitude
Rises 18:44:52 0° 170° (S) 3,376 7.1 -13.9°
Reaches altitude 10° 18:47:13 10° 172° (S) 2,449 6.4 -14.3°
Maximum altitude 18:52:39 72° 256° (WSW) 890 4.5 -15.2°
Drops below altitude 10° 18:58:09 10° 342° (NNW) 2,479 7.0 -16.2°
Sets 19:00:32 0° 344° (NNW) 3,421 7.7 -16.6°
